Miscellaneous Local Product
Issued by NWS Hastings, NE

Home | Current Version | Previous Version | Text Only | Print | Product List | Glossary Off
Versions: 1 2 3 4 5 6 7 8 9 10 11 12 13 14 15 16 17 18 19 20 21 22 23 24 25 26 27 28 29 30 31 32 33 34 35 36 37 38 39 40 41 42 43 44 45 46 47 48 49 50

000
AXUS43 KGID 271902
MISGRI

GID CWA HOURLY WEATHER ROUNDUP
NATIONAL WEATHER SERVICE HASTINGS NE
200 PM CDT TUE JUN 27 2017

NOTE: "FAIR" INDICATES FEW OR NO CLOUDS BELOW 12,000 FEET WITH NO
SIGNIFICANT WEATHER AND/OR OBSTRUCTIONS TO VISIBILITY.

...SOUTH CENTRAL NEBRASKA...

CITY           SKY/WX    TMP DP  RH WIND       PRES   REMARKS
GRAND ISLAND   MOSUNNY   79  64  60 SE22G30   29.89F
HASTINGS       MOSUNNY   80  63  55 S18G26    29.90F
KEARNEY        CLOUDY    79  63  57 SE21G29   29.89F
ORD            SUNNY     81  59  47 S18G29    29.85F
YORK           MOSUNNY   77  63  61 SE16      29.92F
AURORA         MOSUNNY   78  62  56 SE20G25   29.90F
LEXINGTON      CLOUDY    76  64  65 S17G24    29.88F
HOLDREGE       PTSUNNY   75  62  63 S16G23    29.89F
HEBRON         PTSUNNY   82  65  57 SE14      29.93F

...NEBRASKA PANHANDLE...

CITY           SKY/WX    TMP DP  RH WIND       PRES   REMARKS
CHADRON        CLOUDY    92  52  25 W16G22    29.69F
ALLIANCE       SUNNY     84  56  38 S18G24    29.77F
SCOTTSBLUFF    MOSUNNY   90  51  26 SW7       29.76F
SIDNEY         SUNNY     89  55  31 S13G21    29.82F

...WESTERN AND NORTH CENTRAL NEBRASKA...

CITY           SKY/WX    TMP DP  RH WIND       PRES   REMARKS
VALENTINE      SUNNY     87  57  35 S29G39    29.73F
AINSWORTH      CLOUDY    81  61  49 S24G32    29.78F
ONEILL         SUNNY     80  57  45 SE23G35   29.83F
BROKEN BOW     MOSUNNY   81  63  54 S23G31    29.86F
IMPERIAL       SUNNY     85  58  39 S20G30    29.82F
NORTH PLATTE   CLOUDY    74  62  66 SE16G22   29.84F
MCCOOK         SUNNY     80  65  59 SE22      29.84F

...EASTERN NEBRASKA...

CITY           SKY/WX    TMP DP  RH WIND       PRES   REMARKS
NORFOLK        SUNNY     78  57  48 S21G30    29.90F
SO SIOUX CITY  SUNNY     78  55  44 S17G24    29.94F
TEKAMAH        SUNNY     80  56  43 SE21G28   29.94F
COLUMBUS       SUNNY     79  61  53 SE18      29.92F
ALBION         SUNNY     80  58  48 SE18G26   29.89F
OMAHA EPPLEY   PTSUNNY   78  58  49 S15G24    29.97F
OFFUTT AFB     SUNNY     78  60  54 SE13G23   29.97F
MILLARD        SUNNY     78  62  57 SE14G22   29.97F
LINCOLN        MOSUNNY   79  63  57 S18G26    29.94F
NEBRASKA CITY  SUNNY     76  64  66 SE14      29.99F
BEATRICE       SUNNY     78  65  64 SE16      29.95F
FALLS CITY     MOSUNNY   76  63  64 SE17G23   29.99F

...NORTHERN KANSAS...

CITY           SKY/WX    TMP DP  RH WIND       PRES   REMARKS
GOODLAND       SUNNY     87  62  43 SE23G30   29.84F
HILL CITY      SUNNY     92  62  36 S14G23    29.84F HX  92
NORTON         CLEAR     82  61  47 SE12      29.86
PHILLIPSBURG   SUNNY     88  63  42 SE14G23   29.86F
SMITH CENTER   SUNNY     84  63  48 SE21G29   29.87F
HAYS           SUNNY     92  65  40 S18G24    29.86F HX  94
RUSSELL        MOSUNNY   91  66  43 SW21G29   29.86F HX  93
CONCORDIA      MOSUNNY   81  67  62 SE23G30   29.93F
SALINA         PTSUNNY   86  69  56 S15G26    29.92F HX  90
TOPEKA         PTSUNNY   80  68  66 SE15      29.99F



USA.gov is the U.S. government's official web portal to all federal, state and local government web resources and services.